Overview Statistics Trail Chart Weather Telemetry Raw packets
 

This is the latest recevied weather packets stored in our database for station/object KB0BS-13. If no packets are shown the sender has not sent any weather packets the latest 10 day(s).

<< 58 59 60 61 62 63 64 >>
Time Temp. Humidity Pressure Rain* Wind** Luminosity Snow
1777309539 16.11° C 55% 1016.9 hPa 0 mm - 626 W/m² -
1777309236 16.67° C 54% 1017.1 hPa 0 mm - 648 W/m² -
1777308935 16.67° C 53% 1017.3 hPa 0 mm - 421 W/m² -
1777308630 16.11° C 55% 1017.1 hPa 0 mm - 495 W/m² -
1777308326 16.11° C 55% 1017.1 hPa 0 mm - 508 W/m² -
1777308021 16.11° C 56% 1017.1 hPa 0 mm - 425 W/m² -
1777307720 16.11° C 56% 1017.2 hPa 0 mm - 705 W/m² -
1777307416 16.11° C 56% 1017.3 hPa 0 mm - 576 W/m² -
1777307114 16.11° C 57% 1017.2 hPa 0 mm - 684 W/m² -
1777306810 15.56° C 56% 1017.3 hPa 0 mm - 606 W/m² -
1777306508 16.11° C 55% 1017.1 hPa 0 mm - 638 W/m² -
1777306203 15.56° C 59% 1017.4 hPa 0 mm - 708 W/m² -
1777305898 15.56° C 57% 1017.5 hPa 0 mm - 617 W/m² -
1777305595 15.56° C 59% 1017.8 hPa 0 mm - 555 W/m² -
1777305291 15° C 59% 1018 hPa 0 mm - 645 W/m² -
1777304989 14.44° C 58% 1018.3 hPa 0 mm - 492 W/m² -
1777304686 14.44° C 59% 1018.5 hPa 0 mm - 314 W/m² -
1777304384 14.44° C 58% 1018.6 hPa 0 mm - 365 W/m² -
1777304081 14.44° C 58% 1019 hPa 0 mm - 361 W/m² -
1777303777 14.44° C 56% 1019 hPa 0 mm - 426 W/m² -
1777303474 13.89° C 55% 1019.1 hPa 0 mm - 435 W/m² -
1777303172 13.89° C 57% 1019.5 hPa 0 mm - 435 W/m² -
1777302871 13.89° C 54% 1019.3 hPa 0 mm - 394 W/m² -
1777302567 13.89° C 53% 1019.6 hPa 0 mm - 392 W/m² -
1777302265 13.89° C 50% 1019.9 hPa 0 mm - 459 W/m² -

* Rain latest hour (hover to see other rain measurements)
** Current wind speed in m/s (hover to see current wind gust speed)